Regional Weather Roundup
Issued by NWS

Home | Current Version | Previous Version | Text Only | Print | Product List | Glossary On
Versions: 1 2 3 4 5 6 7 8 9 10 11 12 13 14 15 16 17 18 19 20 21 22 23 24 25 26 27 28 29 30 31 32 33 34 35 36 37 38 39 40 41 42 43 44 45 46 47 48 49 50
000
ASUS43 KDTX 011610
RWRMI
MICHIGAN HOURLY REGIONAL WEATHER ROUNDUP
NATIONAL WEATHER SERVICE DETROIT/PONTIAC MI
1200 PM EDT SUN MAY 01 2016

NOTE: "FAIR" INDICATES FEW OR NO CLOUDS BELOW 12,000 FEET WITH NO
SIGNIFICANT WEATHER AND/OR OBSTRUCTION TO VISIBILITY.

MIZ047>049-052>055-059>063-066>070-074>076-081>083-011700-
SOUTHEAST LOWER MICHIGAN

CITY           SKY/WX    TMP DP  RH WIND       PRES   REMARKS
ADRIAN         CLOUDY    51  50  96 E6        29.97S FOG
ALMA           CLOUDY    46  45  97 NE15G22   30.03S FOG
ANN ARBOR      CLOUDY    50  49  96 NE6       29.97S FOG
BAD AXE        CLOUDY    46  43  91 NE13      30.04S
CARO           CLOUDY    47  44  88 NE5       30.02R
DETROIT CITY   CLOUDY    49  47  93 N8        29.98R FOG
DETROIT        DRIZZLE   50  48  93 N7        29.98S FOG
FLINT          CLOUDY    50  46  86 NE14      30.00S FOG
GROSSE ILE     CLOUDY    52  48  87 N6        29.96S FOG
HILLSDALE      CLOUDY    50  50 100 N6        29.96R FOG
HOWELL         CLOUDY    47  47  99 NE6       29.98F FOG

CITY           SKY/WX    TMP DP  RH WIND       PRES   REMARKS
JACKSON        CLOUDY    48  46  93 N7        29.98S FOG
LAMBERTVILLE   CLOUDY    52  50  95 NE3       29.97S FOG
LANSING        CLOUDY    47  45  93 NE13      30.00F FOG
LAPEER         CLOUDY    46  45  95 NE5       30.01R FOG
MASON          CLOUDY    46  45  95 NE8       29.98F FOG
MONROE         CLOUDY    50  50  99 N10       29.96F FOG
MT. CLEMENS    CLOUDY    49  49 100 N9        29.98R FOG
PONTIAC        LGT RAIN  47  45  93 NE9       29.98R FOG
PORT HOPE        N/A     43  41  93 NE16      30.03F
PORT HURON     CLOUDY    46  46 100 N8        29.99S FOG
TRI CITIES     CLOUDY    48  43  82 NE17      30.04R
MIDLAND        CLOUDY    46  44  93 NE8       30.04S
TROY           CLOUDY    49  48  95 NE8       30.00R
SAGINAW HB     CLOUDY    48  45  87 NE13      30.02S
$$
MIZ043>046-050>051-056>058-064>065-071>073-077>080-011700-
SOUTHWEST LOWER MICHIGAN

CITY           SKY/WX    TMP DP  RH WIND       PRES   REMARKS
BATTLE CREEK   CLOUDY    48  46  93 NE10      29.99S
BENTON HARBOR  CLOUDY    52  47  83 E7        29.98F
BIG RAPIDS     CLOUDY    49  40  73 NE9       30.03F
COLDWATER      CLOUDY    50  50 100 NE7       29.97S FOG
FREMONT        CLOUDY    49  43  79 E16       30.02F
HOLLAND        CLOUDY    50  46  86 NE9       30.01R
GRAND RAPIDS   CLOUDY    49  45  86 NE13      30.01R
IONIA          CLOUDY    46  45  95 NE13      30.00S
KALAMAZOO      CLOUDY    50  46  86 NE7       29.99R
LUDINGTON      CLOUDY    50  41  72 NE9G16    30.06S
MARSHALL       CLOUDY    48  47  95 N3        29.98R FOG
MOUNT PLEASANT CLOUDY    46  44  91 NE12G20   30.04R
MUSKEGON       CLOUDY    51  43  74 NE13      30.02S
SOUTH HAVEN    CLOUDY    50  48  91 E6        29.99S
$$
MIZ016>042-011700-
NORTHERN LOWER MICHIGAN

CITY           SKY/WX    TMP DP  RH WIND       PRES   REMARKS
ALPENA         LGT RAIN  47  41  80 NE6       30.13R
BEAVER ISLAND  CLOUDY    51  34  51 E8G16     30.15R
BELLAIRE       LGT RAIN  50  41  71 NE14G22   30.12S
CADILLAC       DRIZZLE   46  42  85 NE9G20    30.05S
CHARLEVOIX     CLOUDY    50  37  59 E10       30.16R
FRANKFORT      CLOUDY    52  41  65 E10G23    30.09S
GAYLORD        LGT RAIN  47  42  83 NE15G22   30.10S
GRAYLING       DRIZZLE   48  45  87 NE14      30.09S
HARBOR SPRINGS CLOUDY    50  36  59 E8        30.14R
HOUGHTON LAKE  CLOUDY    47  43  86 NE16G24   30.07R
MANISTEE       PTSUNNY   52  39  62 E16       30.07S
OSCODA         DRIZZLE   46  43  89 NE12      30.07F
PELLSTON       PTSUNNY   51  33  50 E9        30.14R
ROGERS CITY    CLOUDY    45  36  71 NE3       30.15S
TRAVERSE CITY  CLOUDY    48  40  73 NE8       30.09S
$$
MIZ007>008-015-011700-
EASTERN UPPER MICHIGAN

CITY           SKY/WX    TMP DP  RH WIND       PRES   REMARKS
KINROSS          N/A     54  28  37 E8        30.15R
MACKINAC ISLAN CLOUDY    49  32  52 E8        30.15S
NEWBERRY       CLOUDY    52  33  47 E3        30.14S
S. S. MARIE    CLOUDY    55  30  38 VRB6      30.14S
MUNISING         N/A     42  37  82 N13       30.17S
$$
MIZ004>006-011>014-085-011700-
CENTRAL UPPER MICHIGAN

CITY           SKY/WX    TMP DP  RH WIND       PRES   REMARKS
MANISTIQUE     MOSUNNY   54  31  40 SE14      30.14S
ESCANABA       MOSUNNY   54  32  43 E12       30.14F
MENOMINEE      CLOUDY    50  34  53 E18       30.14R
SAWYER-GWINN   SUNNY     46  34  61 N10       30.18S
$$
MIZ001>003-009>011-084-011700-
WESTERN UPPER MICHIGAN

CITY           SKY/WX    TMP DP  RH WIND       PRES   REMARKS
IRON MOUNTAIN  SUNNY     57  33  40 E10       30.12F
HOUGHTON       SUNNY     49  34  56 E12       30.21S
COPPER HARBOR    N/A     42  36  79 VRB5      30.24S
IRONWOOD         N/A     48  37  66 N6        30.17F
$$

ABBREVIATIONS USED IN REMARKS
   TC - TEMPERATURE IN CELSIUS
  WCI - WIND CHILL INDEX
   HX - HEAT INDEX
  VSB - VISIBILITY





USA.gov is the U.S. government's official web portal to all federal, state and local government web resources and services.